Terug naar catalogus

STARLINK-35500

ActiefCommunicatieVLEO
NORAD 66093·PAYLOAD·🇺🇸 United States

Gelanceerd Oct 19, 2025 vanaf Vandenberg Space Force Base

Loading…

Volgende Passages (komende 24 uur)

TLE

VersSource: CelesTrak SupGP

Epoch: Sep 15, 2026, 03:37 UTC

1 66093C 25236H   26258.15118056  .00019376  00000+0  57244-3 0  2580
2 66093  53.1571 302.3695 0001230  95.9816 234.8314 15.34382840    14

Volg STARLINK-35500 in realtime met AllMySat

Download on the App Store